THY196 LTBS-LYBE

Flight info

Callsign THY196
Flight time 1h 43m
Altitude 36000
Route KEKIK N127 SONEN UN127 LMO UN128 PEREN UL863 EVIVI L863 OKANA DCT GAZON
Aircraft A20N/M-V/N

Departure

Time 2026-04-26 16:53
Airport Dalaman International Airport (LTBS)

Arrival

Time 2026-04-26 18:36
Airport Belgrade Nikola Tesla Airport (LYBE)
Time Latitude Longitude Altitude Speed Heading
2026-04-26 16:37 36.72233 28.79049 31 ft 0 kts 285°
2026-04-26 16:42 36.72229 28.79066 30 ft 2 kts 285°
2026-04-26 16:43 36.72225 28.79084 30 ft 2 kts 285°
2026-04-26 16:43 36.72222 28.79096 30 ft 1 kts 286°
2026-04-26 16:43 36.72222 28.79114 30 ft 2 kts 251°
2026-04-26 16:43 36.72229 28.79130 30 ft 2 kts 224°
2026-04-26 16:44 36.72240 28.79139 30 ft 0 kts 199°
2026-04-26 16:44 36.72246 28.79141 30 ft 1 kts 194°
2026-04-26 16:44 36.72248 28.79141 30 ft 0 kts 194°
2026-04-26 16:44 36.72247 28.79141 30 ft 0 kts 194°
2026-04-26 16:46 36.72235 28.79137 30 ft 3 kts 195°
2026-04-26 16:46 36.72205 28.79127 29 ft 5 kts 196°
2026-04-26 16:46 36.72163 28.79112 29 ft 6 kts 196°
2026-04-26 16:46 36.72117 28.79096 30 ft 7 kts 196°
2026-04-26 16:47 36.72066 28.79078 30 ft 8 kts 196°
2026-04-26 16:47 36.72001 28.79055 28 ft 11 kts 194°
2026-04-26 16:47 36.71916 28.79029 27 ft 13 kts 194°
2026-04-26 16:47 36.71819 28.78995 25 ft 15 kts 196°
2026-04-26 16:48 36.71711 28.78957 23 ft 17 kts 195°
2026-04-26 16:48 36.71597 28.78920 24 ft 16 kts 195°
2026-04-26 16:48 36.71493 28.78884 22 ft 14 kts 196°
2026-04-26 16:48 36.71402 28.78852 20 ft 13 kts 191°
2026-04-26 16:49 36.71345 28.78934 19 ft 14 kts 105°
2026-04-26 16:49 36.71289 28.79023 19 ft 14 kts 178°
2026-04-26 16:49 36.71189 28.78994 19 ft 14 kts 195°
2026-04-26 16:49 36.71086 28.78958 17 ft 16 kts 195°
2026-04-26 16:50 36.70971 28.78918 15 ft 17 kts 195°
2026-04-26 16:50 36.70854 28.78879 15 ft 17 kts 195°
2026-04-26 16:50 36.70734 28.78839 15 ft 17 kts 194°
2026-04-26 16:50 36.70616 28.78798 15 ft 17 kts 196°
2026-04-26 16:51 36.70499 28.78758 15 ft 17 kts 195°
2026-04-26 16:51 36.70380 28.78717 15 ft 17 kts 195°
2026-04-26 16:51 36.70262 28.78677 15 ft 17 kts 195°
2026-04-26 16:51 36.70144 28.78637 15 ft 17 kts 194°
2026-04-26 16:52 36.70053 28.78703 15 ft 17 kts 107°
2026-04-26 16:52 36.70052 28.78799 15 ft 16 kts 62°
2026-04-26 16:52 36.70235 28.78881 16 ft 47 kts 16°
2026-04-26 16:52 36.70789 28.79071 15 ft 113 kts 15°
2026-04-26 16:53 36.71737 28.79395 50 ft 162 kts 16°
2026-04-26 16:53 36.72837 28.79781 536 ft 168 kts 16°
2026-04-26 16:53 36.73952 28.80113 1251 ft 165 kts 13°
2026-04-26 16:53 36.75057 28.80382 1896 ft 164 kts 12°
2026-04-26 16:54 36.76226 28.80660 2248 ft 179 kts 12°
2026-04-26 16:54 36.77512 28.80929 2556 ft 198 kts
2026-04-26 16:54 36.78899 28.80444 2879 ft 220 kts 324°
2026-04-26 16:54 36.80057 28.79107 3372 ft 235 kts 317°
2026-04-26 16:55 36.81234 28.77694 4085 ft 239 kts 319°
2026-04-26 16:55 36.82533 28.76345 4674 ft 249 kts 326°
2026-04-26 16:55 36.83924 28.74983 5292 ft 260 kts 316°
2026-04-26 16:55 36.84769 28.72997 5949 ft 274 kts 283°
2026-04-26 16:56 36.83634 28.68408 7319 ft 293 kts 240°
2026-04-26 16:56 36.82881 28.66067 7995 ft 295 kts 268°
2026-04-26 16:56 36.83166 28.63606 8682 ft 290 kts 299°
2026-04-26 16:57 36.84336 28.61650 9390 ft 284 kts 324°
2026-04-26 16:57 36.85860 28.60124 10105 ft 286 kts 325°
2026-04-26 16:57 36.88973 28.56951 11503 ft 293 kts 324°
2026-04-26 16:58 36.90538 28.55313 12201 ft 296 kts 324°
2026-04-26 16:58 36.91593 28.54200 12671 ft 298 kts 323°
2026-04-26 16:58 36.95278 28.50281 14249 ft 303 kts 323°
2026-04-26 16:59 36.96888 28.48558 14905 ft 306 kts 323°
2026-04-26 16:59 37.00132 28.45085 16185 ft 311 kts 323°
2026-04-26 17:00 37.03457 28.41527 17406 ft 317 kts 324°
2026-04-26 17:00 37.06807 28.37937 18591 ft 322 kts 323°
2026-04-26 17:00 37.08508 28.36110 19152 ft 325 kts 323°
2026-04-26 17:01 37.10254 28.34225 19433 ft 338 kts 322°
2026-04-26 17:01 37.12073 28.32254 19685 ft 351 kts 322°
2026-04-26 17:01 37.13943 28.30222 19916 ft 363 kts 322°
2026-04-26 17:01 37.15872 28.28130 20132 ft 375 kts 322°
2026-04-26 17:02 37.17878 28.25970 20347 ft 387 kts 322°
2026-04-26 17:02 37.19947 28.23743 20596 ft 397 kts 322°
2026-04-26 17:02 37.22059 28.21465 21024 ft 402 kts 322°
2026-04-26 17:02 37.24188 28.19164 21527 ft 404 kts 322°
2026-04-26 17:03 37.26303 28.16876 22013 ft 406 kts 322°
2026-04-26 17:03 37.28444 28.14561 22495 ft 409 kts 322°
2026-04-26 17:03 37.30610 28.12218 22929 ft 412 kts 322°
2026-04-26 17:03 37.32780 28.09862 23384 ft 414 kts 322°
2026-04-26 17:04 37.34943 28.07507 23831 ft 416 kts 322°
2026-04-26 17:04 37.37151 28.05099 24314 ft 417 kts 322°
2026-04-26 17:04 37.39319 28.02730 24752 ft 418 kts 322°
2026-04-26 17:04 37.41515 28.00329 25149 ft 421 kts 322°
2026-04-26 17:05 37.43741 27.97896 25512 ft 423 kts 322°
2026-04-26 17:05 37.45956 27.95474 25861 ft 426 kts 322°
2026-04-26 17:05 37.48186 27.93031 26231 ft 427 kts 322°
2026-04-26 17:05 37.50447 27.90550 26640 ft 428 kts 322°
2026-04-26 17:06 37.52674 27.88102 27143 ft 425 kts 322°
2026-04-26 17:06 37.54888 27.85668 27637 ft 423 kts 322°
2026-04-26 17:06 37.57093 27.83245 28097 ft 422 kts 322°
2026-04-26 17:06 37.59292 27.80826 28576 ft 419 kts 322°
2026-04-26 17:07 37.61482 27.78415 29031 ft 418 kts 322°
2026-04-26 17:07 37.63665 27.76008 29470 ft 416 kts 322°
2026-04-26 17:07 37.65836 27.73614 29920 ft 414 kts 322°
2026-04-26 17:07 37.67981 27.71245 30347 ft 412 kts 322°
2026-04-26 17:08 37.70121 27.68881 30742 ft 411 kts 322°
2026-04-26 17:08 37.72284 27.66489 31141 ft 409 kts 322°
2026-04-26 17:08 37.74414 27.64132 31537 ft 408 kts 322°
2026-04-26 17:08 37.76537 27.61780 31896 ft 406 kts 322°
2026-04-26 17:09 37.78654 27.59434 32258 ft 405 kts 322°
2026-04-26 17:09 37.80049 27.57886 32487 ft 404 kts 322°
2026-04-26 17:09 37.82880 27.54740 32915 ft 403 kts 322°
2026-04-26 17:09 37.84962 27.52427 33238 ft 401 kts 322°
2026-04-26 17:10 37.87062 27.50089 33556 ft 400 kts 322°
2026-04-26 17:10 37.89126 27.47794 33837 ft 399 kts 322°
2026-04-26 17:10 37.91215 27.45500 34107 ft 398 kts 322°
2026-04-26 17:10 37.93314 27.43206 34345 ft 398 kts 322°
2026-04-26 17:11 37.95417 27.40907 34529 ft 398 kts 322°
2026-04-26 17:11 37.97485 27.38641 34691 ft 399 kts 322°
2026-04-26 17:11 37.99597 27.36322 34849 ft 400 kts 322°
2026-04-26 17:11 38.01694 27.34014 35004 ft 401 kts 321°
2026-04-26 17:12 38.05915 27.29363 35305 ft 402 kts 321°
2026-04-26 17:12 38.07995 27.27069 35445 ft 403 kts 321°
2026-04-26 17:13 38.12230 27.22389 35726 ft 404 kts 321°
2026-04-26 17:13 38.14334 27.20061 35867 ft 404 kts 321°
2026-04-26 17:13 38.18597 27.15340 35979 ft 408 kts 321°
2026-04-26 17:14 38.20743 27.12959 35983 ft 412 kts 321°
2026-04-26 17:14 38.27285 27.05686 35986 ft 422 kts 321°
2026-04-26 17:15 38.33922 26.98316 36135 ft 421 kts 321°
2026-04-26 17:16 38.38336 26.93461 36004 ft 420 kts 321°
2026-04-26 17:16 38.42734 26.88611 35983 ft 419 kts 321°
2026-04-26 17:17 38.47107 26.83775 35976 ft 419 kts 321°
2026-04-26 17:17 38.51503 26.78900 35973 ft 419 kts 320°
2026-04-26 17:18 38.55886 26.74036 35978 ft 418 kts 320°
2026-04-26 17:18 38.60265 26.69164 35982 ft 418 kts 320°
2026-04-26 17:19 38.66834 26.61840 35986 ft 417 kts 320°
2026-04-26 17:19 38.71170 26.56994 35990 ft 417 kts 320°
2026-04-26 17:20 38.74814 26.52913 35991 ft 416 kts 320°
2026-04-26 17:20 38.79891 26.47220 35997 ft 416 kts 320°
2026-04-26 17:21 38.84233 26.42366 35997 ft 416 kts 321°
2026-04-26 17:21 38.88689 26.37649 36000 ft 416 kts 321°
2026-04-26 17:22 38.93166 26.32925 36000 ft 415 kts 321°
2026-04-26 17:22 38.97593 26.28231 35999 ft 415 kts 321°
2026-04-26 17:23 39.02025 26.23514 36000 ft 415 kts 321°
2026-04-26 17:23 39.06468 26.18773 36000 ft 415 kts 321°
2026-04-26 17:24 39.10889 26.14046 36004 ft 414 kts 320°
2026-04-26 17:24 39.15302 26.09320 36002 ft 413 kts 320°
2026-04-26 17:25 39.19714 26.04585 36006 ft 414 kts 320°
2026-04-26 17:25 39.24142 25.99823 36010 ft 413 kts 320°
2026-04-26 17:26 39.28544 25.95083 36008 ft 413 kts 320°
2026-04-26 17:26 39.32904 25.90290 36008 ft 413 kts 319°
2026-04-26 17:27 39.37253 25.85437 36009 ft 413 kts 319°
2026-04-26 17:27 39.41601 25.80578 36009 ft 413 kts 319°
2026-04-26 17:28 39.45921 25.75746 36003 ft 413 kts 319°
2026-04-26 17:28 39.50267 25.70877 36004 ft 413 kts 319°
2026-04-26 17:29 39.53863 25.66841 36002 ft 413 kts 319°
2026-04-26 17:29 39.58938 25.61137 35998 ft 413 kts 319°
2026-04-26 17:30 39.63258 25.56270 35997 ft 413 kts 319°
2026-04-26 17:30 39.67588 25.51385 35999 ft 413 kts 319°
2026-04-26 17:31 39.71900 25.46512 35994 ft 413 kts 319°
2026-04-26 17:31 39.76225 25.41615 35996 ft 413 kts 319°
2026-04-26 17:32 39.80548 25.36709 35994 ft 413 kts 319°
2026-04-26 17:32 39.84853 25.31814 35992 ft 413 kts 318°
2026-04-26 17:33 39.89115 25.26841 35992 ft 412 kts 315°
2026-04-26 17:34 39.94775 25.18483 35990 ft 412 kts 307°
2026-04-26 17:34 39.98120 25.12397 35990 ft 413 kts 306°
2026-04-26 17:35 40.01429 25.06287 35990 ft 413 kts 306°
2026-04-26 17:35 40.04719 25.00201 35992 ft 413 kts 306°
2026-04-26 17:36 40.08016 24.94093 35995 ft 413 kts 306°
2026-04-26 17:36 40.11310 24.87982 35999 ft 413 kts 306°
2026-04-26 17:37 40.14608 24.81854 35997 ft 413 kts 305°
2026-04-26 17:37 40.17887 24.75743 36001 ft 412 kts 305°
2026-04-26 17:38 40.22800 24.66566 35998 ft 412 kts 305°
2026-04-26 17:38 40.26083 24.60422 35998 ft 412 kts 305°
2026-04-26 17:39 40.29345 24.54300 35999 ft 412 kts 305°
2026-04-26 17:39 40.32616 24.48153 35999 ft 412 kts 305°
2026-04-26 17:40 40.35349 24.43005 36001 ft 413 kts 305°
2026-04-26 17:40 40.39148 24.35836 36002 ft 413 kts 305°
2026-04-26 17:41 40.42418 24.29650 36002 ft 412 kts 305°
2026-04-26 17:41 40.45657 24.23513 36003 ft 412 kts 305°
2026-04-26 17:42 40.48909 24.17337 36001 ft 412 kts 304°
2026-04-26 17:42 40.52161 24.11142 36001 ft 412 kts 305°
2026-04-26 17:43 40.55466 24.05007 35998 ft 413 kts 308°
2026-04-26 17:43 40.59338 23.99477 36003 ft 413 kts 316°
2026-04-26 17:44 40.63837 23.94779 36006 ft 414 kts 325°
2026-04-26 17:44 40.68868 23.91023 36007 ft 417 kts 332°
2026-04-26 17:45 40.74074 23.87728 36007 ft 418 kts 332°
2026-04-26 17:45 40.79299 23.84444 36012 ft 417 kts 332°
2026-04-26 17:46 40.84541 23.81139 36016 ft 417 kts 332°
2026-04-26 17:46 40.89759 23.77841 36018 ft 417 kts 332°
2026-04-26 17:47 40.94119 23.75082 36023 ft 418 kts 332°
2026-04-26 17:47 41.00238 23.71201 36025 ft 418 kts 332°
2026-04-26 17:48 41.05470 23.67876 36033 ft 418 kts 333°
2026-04-26 17:48 41.10693 23.64550 36042 ft 418 kts 333°
2026-04-26 17:49 41.15930 23.61208 36071 ft 418 kts 333°
2026-04-26 17:49 41.21180 23.57853 36082 ft 419 kts 333°
2026-04-26 17:50 41.26442 23.54485 36108 ft 420 kts 333°
2026-04-26 17:50 41.31702 23.51097 36103 ft 420 kts 333°
2026-04-26 17:51 41.36937 23.47716 36090 ft 420 kts 332°
2026-04-26 17:51 41.42155 23.44330 36083 ft 420 kts 333°
2026-04-26 17:52 41.47413 23.40910 36074 ft 421 kts 333°
2026-04-26 17:52 41.52673 23.37483 36068 ft 421 kts 333°
2026-04-26 17:53 41.57930 23.34050 36088 ft 422 kts 332°
2026-04-26 17:54 41.65818 23.28884 36103 ft 423 kts 332°
2026-04-26 17:54 41.71091 23.25426 36102 ft 423 kts 332°
2026-04-26 17:55 41.76349 23.21971 36110 ft 422 kts 332°
2026-04-26 17:55 41.81625 23.18497 36123 ft 423 kts 332°
2026-04-26 17:56 41.86866 23.15041 36126 ft 423 kts 332°
2026-04-26 17:57 41.97403 23.08069 36122 ft 423 kts 332°
2026-04-26 17:57 42.02690 23.04561 36124 ft 424 kts 332°
2026-04-26 17:58 42.13293 22.97508 36117 ft 426 kts 332°
2026-04-26 17:59 42.21224 22.92214 36117 ft 425 kts 332°
2026-04-26 17:59 42.26510 22.88677 36119 ft 425 kts 332°
2026-04-26 18:00 42.31797 22.85134 36119 ft 425 kts 332°
2026-04-26 18:00 42.37086 22.81582 36124 ft 426 kts 332°
2026-04-26 18:01 42.42385 22.78017 36129 ft 427 kts 332°
2026-04-26 18:01 42.47678 22.74447 36130 ft 427 kts 332°
2026-04-26 18:02 42.52123 22.71445 36129 ft 427 kts 332°
2026-04-26 18:02 42.58323 22.67250 36145 ft 427 kts 332°
2026-04-26 18:03 42.63614 22.63662 36153 ft 428 kts 332°
2026-04-26 18:03 42.68928 22.60049 36161 ft 428 kts 332°
2026-04-26 18:04 42.74252 22.56422 36165 ft 428 kts 332°
2026-04-26 18:05 42.82141 22.50799 36168 ft 428 kts 328°
2026-04-26 18:05 42.87048 22.46277 36165 ft 428 kts 322°
2026-04-26 18:06 42.91637 22.41075 36162 ft 428 kts 319°
2026-04-26 18:06 42.96086 22.35780 36167 ft 428 kts 319°
2026-04-26 18:07 43.00570 22.30430 36155 ft 429 kts 318°
2026-04-26 18:07 43.05052 22.25078 36151 ft 429 kts 318°
2026-04-26 18:08 43.09546 22.19705 36156 ft 429 kts 318°
2026-04-26 18:08 43.14024 22.14341 36144 ft 428 kts 318°
2026-04-26 18:09 43.18499 22.08967 36145 ft 428 kts 318°
2026-04-26 18:09 43.22977 22.03854 35846 ft 416 kts 323°
2026-04-26 18:09 43.25353 22.01568 35302 ft 413 kts 324°
2026-04-26 18:10 43.27694 21.99357 34693 ft 411 kts 325°
2026-04-26 18:10 43.30031 21.97143 34057 ft 411 kts 324°
2026-04-26 18:10 43.32390 21.94898 33349 ft 413 kts 324°
2026-04-26 18:10 43.34729 21.92659 32622 ft 415 kts 324°
2026-04-26 18:11 43.37101 21.90381 31900 ft 416 kts 324°
2026-04-26 18:11 43.39451 21.88117 31178 ft 418 kts 324°
2026-04-26 18:11 43.41841 21.85809 30416 ft 420 kts 324°
2026-04-26 18:11 43.44217 21.83511 29651 ft 422 kts 324°
2026-04-26 18:12 43.46605 21.81197 28868 ft 424 kts 324°
2026-04-26 18:12 43.49026 21.78848 28084 ft 425 kts 325°
2026-04-26 18:12 43.51441 21.76503 27276 ft 427 kts 325°
2026-04-26 18:12 43.53840 21.74173 26479 ft 428 kts 325°
2026-04-26 18:13 43.56271 21.71807 25915 ft 423 kts 325°
2026-04-26 18:13 43.58628 21.69513 25400 ft 418 kts 325°
2026-04-26 18:13 43.60991 21.67210 24838 ft 414 kts 325°
2026-04-26 18:13 43.62536 21.65703 24468 ft 411 kts 325°
2026-04-26 18:14 43.65637 21.62675 23720 ft 406 kts 326°
2026-04-26 18:14 43.67931 21.60432 23173 ft 402 kts 326°
2026-04-26 18:14 43.70172 21.58240 22632 ft 399 kts 326°
2026-04-26 18:14 43.72426 21.56034 22080 ft 396 kts 326°
2026-04-26 18:15 43.74661 21.53844 21519 ft 392 kts 326°
2026-04-26 18:15 43.76881 21.51665 20951 ft 390 kts 326°
2026-04-26 18:15 43.79082 21.49505 20394 ft 387 kts 326°
2026-04-26 18:15 43.81243 21.47380 19871 ft 383 kts 326°
2026-04-26 18:16 43.83403 21.45255 19333 ft 380 kts 326°
2026-04-26 18:16 43.87656 21.41062 18266 ft 374 kts 326°
2026-04-26 18:16 43.89780 21.38967 17745 ft 370 kts 326°
2026-04-26 18:17 43.91850 21.36925 17245 ft 367 kts 326°
2026-04-26 18:17 43.93908 21.34892 16743 ft 363 kts 325°
2026-04-26 18:17 43.95956 21.32868 16255 ft 359 kts 325°
2026-04-26 18:17 43.97962 21.30884 15755 ft 356 kts 325°
2026-04-26 18:18 43.99962 21.28903 15246 ft 353 kts 324°
2026-04-26 18:18 44.01939 21.26943 14726 ft 350 kts 324°
2026-04-26 18:18 44.03919 21.24979 14229 ft 347 kts 324°
2026-04-26 18:18 44.05853 21.23058 13742 ft 343 kts 324°
2026-04-26 18:19 44.07795 21.21127 13266 ft 340 kts 324°
2026-04-26 18:19 44.09688 21.19242 12795 ft 336 kts 324°
2026-04-26 18:19 44.11581 21.17356 12343 ft 332 kts 324°
2026-04-26 18:19 44.13438 21.15505 11883 ft 326 kts 324°
2026-04-26 18:20 44.15271 21.13677 11131 ft 321 kts 324°
2026-04-26 18:20 44.17050 21.11900 10315 ft 316 kts 324°
2026-04-26 18:20 44.18791 21.10159 9856 ft 298 kts 324°
2026-04-26 18:20 44.19889 21.09062 9624 ft 286 kts 324°
2026-04-26 18:21 44.21952 21.06999 9216 ft 264 kts 324°
2026-04-26 18:21 44.23416 21.05534 8813 ft 253 kts 324°
2026-04-26 18:21 44.24820 21.04128 8235 ft 250 kts 324°
2026-04-26 18:21 44.26216 21.02730 7614 ft 249 kts 324°
2026-04-26 18:22 44.27602 21.01340 7166 ft 246 kts 324°
2026-04-26 18:22 44.29006 20.99930 7030 ft 247 kts 324°
2026-04-26 18:22 44.30401 20.98528 7029 ft 248 kts 324°
2026-04-26 18:22 44.31784 20.97141 6789 ft 241 kts 323°
2026-04-26 18:23 44.33125 20.95793 6162 ft 243 kts 324°
2026-04-26 18:23 44.34505 20.94401 5522 ft 243 kts 324°
2026-04-26 18:23 44.35849 20.93045 5130 ft 241 kts 324°
2026-04-26 18:23 44.37223 20.91662 5025 ft 243 kts 324°
2026-04-26 18:24 44.38599 20.90278 5020 ft 243 kts 324°
2026-04-26 18:24 44.39961 20.88907 5028 ft 243 kts 324°
2026-04-26 18:24 44.41344 20.87513 5030 ft 244 kts 324°
2026-04-26 18:24 44.42729 20.86114 5023 ft 244 kts 324°
2026-04-26 18:25 44.44096 20.84735 5018 ft 244 kts 324°
2026-04-26 18:25 44.45470 20.83346 5020 ft 244 kts 324°
2026-04-26 18:25 44.46832 20.81969 5026 ft 244 kts 325°
2026-04-26 18:25 44.48209 20.80577 5029 ft 244 kts 325°
2026-04-26 18:26 44.49589 20.79180 5027 ft 244 kts 325°
2026-04-26 18:26 44.50965 20.77786 5018 ft 244 kts 325°
2026-04-26 18:26 44.52336 20.76397 5015 ft 238 kts 325°
2026-04-26 18:26 44.53643 20.75069 5010 ft 223 kts 325°
2026-04-26 18:27 44.54850 20.73843 5010 ft 206 kts 325°
2026-04-26 18:27 44.55956 20.72719 5000 ft 191 kts 325°
2026-04-26 18:27 44.56992 20.71666 5058 ft 172 kts 325°
2026-04-26 18:27 44.57929 20.70714 4947 ft 164 kts 326°
2026-04-26 18:28 44.58862 20.69766 4548 ft 168 kts 326°
2026-04-26 18:28 44.59816 20.68796 4189 ft 169 kts 326°
2026-04-26 18:28 44.60734 20.67860 4020 ft 159 kts 327°
2026-04-26 18:28 44.61634 20.66944 4026 ft 159 kts 327°
2026-04-26 18:29 44.62533 20.66032 4026 ft 165 kts 327°
2026-04-26 18:29 44.63498 20.65053 4035 ft 172 kts 326°
2026-04-26 18:29 44.64473 20.64061 4030 ft 173 kts 326°
2026-04-26 18:29 44.65441 20.63073 4022 ft 173 kts 326°
2026-04-26 18:30 44.66414 20.62081 4021 ft 173 kts 326°
2026-04-26 18:30 44.67394 20.61075 4017 ft 174 kts 326°
2026-04-26 18:30 44.68342 20.60027 4020 ft 174 kts 322°
2026-04-26 18:30 44.69192 20.58814 4019 ft 176 kts 314°
2026-04-26 18:31 44.69952 20.57442 4007 ft 175 kts 310°
2026-04-26 18:31 44.70658 20.56053 4010 ft 174 kts 309°
2026-04-26 18:31 44.71331 20.54651 3923 ft 175 kts 308°
2026-04-26 18:31 44.71994 20.53207 3698 ft 175 kts 307°
2026-04-26 18:32 44.72632 20.51781 3472 ft 175 kts 307°
2026-04-26 18:32 44.73277 20.50318 3236 ft 174 kts 307°
2026-04-26 18:32 44.73896 20.48903 3003 ft 168 kts 307°
2026-04-26 18:32 44.74496 20.47528 2774 ft 160 kts 307°
2026-04-26 18:33 44.75048 20.46265 2582 ft 143 kts 308°
2026-04-26 18:33 44.75548 20.45124 2386 ft 134 kts 309°
2026-04-26 18:33 44.76039 20.44017 2227 ft 134 kts 309°
2026-04-26 18:33 44.76531 20.42909 2060 ft 133 kts 308°
2026-04-26 18:34 44.77020 20.41804 1887 ft 133 kts 309°
2026-04-26 18:34 44.77506 20.40703 1716 ft 133 kts 308°
2026-04-26 18:34 44.77996 20.39596 1539 ft 133 kts 308°
2026-04-26 18:34 44.78483 20.38493 1358 ft 133 kts 308°
2026-04-26 18:35 44.78971 20.37390 1178 ft 132 kts 307°
2026-04-26 18:35 44.79454 20.36301 1004 ft 132 kts 307°
2026-04-26 18:35 44.79940 20.35203 827 ft 132 kts 306°
2026-04-26 18:35 44.80423 20.34113 659 ft 132 kts 305°
2026-04-26 18:36 44.80911 20.33011 480 ft 132 kts 305°
2026-04-26 18:36 44.81399 20.31917 346 ft 128 kts 306°
2026-04-26 18:36 44.81805 20.31013 344 ft 86 kts 301°
2026-04-26 18:36 44.82031 20.30504 343 ft 38 kts 301°
2026-04-26 18:37 44.82168 20.30198 343 ft 36 kts 300°
2026-04-26 18:37 44.82285 20.29927 343 ft 17 kts 301°
2026-04-26 18:37 44.82333 20.29783 343 ft 15 kts 268°
2026-04-26 18:37 44.82271 20.29677 343 ft 7 kts 211°
2026-04-26 18:38 44.82247 20.29657 343 ft 4 kts 211°
2026-04-26 18:38 44.82214 20.29629 343 ft 6 kts 212°
2026-04-26 18:38 44.82174 20.29594 343 ft 7 kts 212°
2026-04-26 18:38 44.82127 20.29551 343 ft 8 kts 213°
2026-04-26 18:39 44.82074 20.29502 343 ft 9 kts 213°
2026-04-26 18:39 44.82014 20.29450 343 ft 10 kts 210°
2026-04-26 18:39 44.82002 20.29374 343 ft 9 kts 302°
2026-04-26 18:39 44.82016 20.29344 343 ft 0 kts 304°